STARLINK-2209, 47776

Orbit data source: Space-Track

STARLINK-2209, 47776 is a payload satellite owned by SpaceX/Seattle (US) in LEO that was launched on Thu, 04 Mar 2021 UTC via an FALCON 9 launch vehicle from the Air Force Eastern Test Range (AFETR). Payload-class satellites include a variety of spacecraft equipped with specific instruments for various scientific and technological missions. These include communications satellites like Starlink; space stations such as the ISS; scientific satellites like the Hubble; Earth observation satellites from companies like Planet Labs, Umbra, and HawkEye 360; GPS; miniature CubeSats for education and research; and military/defense satellites.

Loading next visibility...
Identifier
47776, 2021-017BG
Orbit
LEO
Country
Flag of USUS
Related business
Manufacturer
SpaceX/Seattle
Mission
Operational Commercial Communications
Bus & Motor
STARLINK, Unknown motor
Mass
260 kg wet, ~248 kg dry
Launch date (UTC)
2021-03-04 (5 years ago)
Launch vehicle
FALCON 9
Launch site
Air Force Eastern Test Range (AFETR)
Object type
Payload
Rocket body
Debris
Shape & HBR
Box + 1 Pan, 10.1 m
Radar Cross Section
13.562 m², Large (>1 m²)

Expand to show TLE details & history
Last TLE update: 21 hours ago

TLE from 21 hours ago
0 STARLINK-2209
1 47776U 21017BG  25348.92790325  .00002153  00000-0  16346-3 0  9995
2 47776  53.0535 232.1271 0001380  86.8348 273.2799 15.06382173264974
Epoch: 2025-12-14T22:16Z
TLE epoch observation values (Epoch: 2025-12-14T22:16:10.840Z)
Latitude
-0.00003°
Longitude
174.24812°
Altitude
548.091 km
Speed
7.589 km/s
True Right ascension
15h 28m 30s
True Declination
0° 00' 00"
Sunlit
Object was in daylight at epoch
Visualization orbit readout
Latitude
Unknown
Longitude
Unknown
Altitude
Unknown
Speed
Unknown
Apparent Right ascension
Unknown
Apparent Declination
Unknown
Sunlit
N/A
Visualization observer readout
Local Sidereal Time
18:10:34
Azimuth
Unknown
Elevation
Unknown
Doppler factor
Unknown
Orbital elements
Apogee altitude
548.493 km
Perigee altitude
546.581 km
Semi-major axis
6,925.674 km
Eccentricity
0.00014
Inclination
53.0535°
RAAN
232.1271°
Arg. of periapsis
86.8348°
True anomaly
273.26411°
Mean anomaly
273.2799°
Eccentric anomaly
273.27201°
Mean motion
3.76574 °/min
Orbital period
95.6 mins
BSTAR
0.00016346
Loading maneuver chart data...
Computing Atmospheric mass density...
Loading historical data...
Loading historical data...
Loading historical data...
Loading historical data...
Loading historical data...
Loading historical data...
Loading historical data...

Documentation

Showing up to 5 results
|